www.pogodaiklimat.ru

Погода и климат >> Архив погоды >> Россия >> Иркутская область >> Ика


АРХИВ ПОГОДЫ в Ике

Время (UTC), дата Ветер
(напр.,м/с)
 
Видим.   Явления Облачность Т
(С)
Тd
(С)
f
(%)
Тe
(С)
Тes
(С)
Комфортность P
(гПа)
Po
(гПа)
Тmin
(С)
Tmax
(С)
R
(мм)
R24
(мм)
S
(см)
06 15.09 З 5 50 км {ливн. осадки} 10/10 600 м
[Cb cap]
+4.3 -1.8 64 -0 -0 1009.1 966.6
12 15.09 Ю 1 10 км {ливн. осадки} 9/9 600 м
[Cb cap]
+2.3 -0.1 84 +1 +1 1009.3 966.5 +4.8 0.0
18 15.09 штиль 0 10 км слаб. ливневой дождь со снегом 10/10 300 м
[Cb cap]
+1.0 -0.1 92 -0 -0 1008.2 965.2
00 16.09 штиль 0 50 км {ливн. осадки} 9/9 600 м
[Sc]
+0.6 -1.1 88 -1 -1 1010.7 967.5 -0.1 0.3
06 16.09 50 км н/о +5.5 -4.0 50 +1 +2 1014.1 971.6
12 16.09 штиль 0 10 км 9/9 600 м
[Sc]
+4.1 -3.8 56 +4 +4 1019.2 976.2 +5.7
18 16.09 штиль 0 10 км 9/9 600 м
[Sc]
+1.1 -1.5 83 0 0 1021.9 978.4
00 17.09 штиль 0 50 км 6/6 600 м
[Sc]
+0.7 -1.9 83 -0 -0 1023.2 979.4 +0.3
06 17.09 ЮЗ 3 50 км 10/10 600 м
[Cb cap]
+6.3 -2.1 55 +4 +4 1020.9 978.2
12 17.09 ЮЗ 1 10 км слаб. ливневой дождь 10/10 600 м
[Cb cap]
+4.7 +2.7 87 +3 +3 1019.8 976.8 +7.0 0.0
18 17.09 штиль 0 10 км 10/10 600 м
[Cb cap]
+5.8 +4.6 92 +5 +5 1018.0 975.4
00 18.09 Ю 2 50 км {ливн. осадки} 3/3 600 м
[Sc]
+5.8 +4.4 91 +3 +4 1014.9 972.4 +5.0 0.7
06 18.09 З 5 50 км 8/8 600 м
[Cb calv]
+16.1 +6.5 53 +15 +16 1009.3 968.5
12 18.09 штиль 0 10 км 6/3 600 м
[Sc diur, vesp Ci fib]
+11.3 +6.7 73 +11 +11 1008.1 966.7 +17.5
18 18.09 З 1 10 км ливневой дождь 9/9 600 м
[Cb cap]
+10.6 +10.0 96 +10 +10 1016.5 965.1
00 19.09 З 2 20 км ливневой дождь 9/9 300 м
[Cb cap]
+7.7 +6.8 94 +6 +6 1013.2 971.0 +5.7 6
06 19.09 С 3 50 км в посл. час ливневой дождь 8/8 600 м
[Cb cap]
+9.0 +5.7 80 +7 +7 1016.4 974.3
12 19.09 штиль 0 10 км {ливн. осадки} 3/3 600 м
[Sc]
+5.2 +3.5 89 +4 +4 1019.6 975.8 +10.3 0.7
18 19.09 штиль 0 4000 м дымка 5/5 600 м
[Sc]
+0.5 -0.6 92 -1 -1 1019.9 975.3
00 20.09 штиль 0 50 км {ливн. осадки} 10/10 300 м
[Cb cap]
+2.6 +1.6 93 +1 +1 1014.7 971.6 +0.3 2
06 20.09 З 4 50 км {ливн. осадки} 10/5 600 м
[Sc Cs]
+16.0 +10.8 71 +15 +17 1010.8 969.9
12 20.09 З 1 10 км 8/3 600 м
[Sc diur, vesp Ci fib]
+11.8 +8.6 81 +12 +12 1012.2 970.7 +16.8 0.3
18 20.09 штиль 0 10 км 8/0
[Ac trans Ci fib]
+3.9 +3.2 95 +3 +3 1011.4 968.8
00 21.09 штиль 0 50 км 6/0
[Ac trans Ci fib]
+6.0 +4.9 93 +5 +5 1007.6 965.4 +2.2
06 21.09 З 4 50 км {ливн. осадки} 8/3 600 м
[Cu hum Ci]
+9.4 +7.7 89 +6 +8 1006.2 966.0
12 21.09 ЮЗ 3 10 км 8/8 600 м
[Sc]
+14.8 +1.5 40 +14 +14 1010.6 969.6 +20.3 0.0
18 21.09 штиль 0 10 км ясно +6.9 +1.7 69 +6 +6 1016.2 973.8
00 22.09 штиль 0 50 км 4/4 600 м
[Sc]
+0.1 -1.0 92 -1 -1 1021.5 977.1 -1.3

 

Местоположение метеостанции Ика (Иркутская область, Россия): широта 59.28 долгота 106.10 высота над уровнем моря 352 м.

В архиве по умолчанию представлена погода в Ике за последнюю неделю. Архивные данные за месяц целиком и за предыдущие месяцы, начиная с января 2011 года, Вы можете получить, выбрав интересующий диапазон дат из раскрывающегося списка и нажав кнопку "Ввод!".


*Определитесь, кто Вы:
робот инопланетянин человек

Внимание! Время в таблицах - всемирное. Для получения местного времени необходимо прибавить поправку, которая равна 8 ч.

Смотрите также архив погоды в соседних городах и на ближайших метеорологических станциях:

Погода в Токме (Иркутская область, Россия) (119 км)
Погода в Преображенке (Иркутская область, Россия) (137 км)
Погода в Чемдальске (Красноярский край, Россия) (163 км)
Погода в Киренске (Иркутская область, Россия) (201 км)
Погода в Ванаваре (Эвенкия, Россия) (242 км)
Погода в Ербогачене (Иркутская область, Россия) (245 км)
Погода в Усть-Илимске (Иркутская область, Россия) (249 км)
Погода в Максимово (Иркутская область, Россия) (252 км)
Погода в Новой Игирме (Иркутская область, Россия) (274 км)
Погода в Усть-Куте (Иркутская область, Россия) (276 км)

Пояснения к столбцам:

Ветер - указаны скорость ветра в м/с - средняя за 10 мин, порывы в срок и между сроками (в фигурных скобках) и направление, откуда дует ветер: С - северный, СВ - северо-восточный, В - восточный, ЮВ - юго-восточный, Ю - южный, ЮЗ - юго-западный, З - западный, СЗ - северо-западный.
Видимость - горизонтальная дальность видимости в метрах или километрах. При видимости от 1 до 10 км при отсутствии осадков обычно наблюдается дымка, при ухудшении видимости до 1 км и менее - туман. В сухую погоду видимость может ухудшаться дымом, пылью или мглою.
Явления - указаны атмосферные явления, наблюдавшиеся в срок или в последний час перед сроком; фигурными скобками обозначены явления, наблюдавшиеся между сроками (за 1-3 часа до срока); квадратными скобками обозначены град или гололедные отложения с указанием их диаметра в мм.
Облачность - указаны через наклонную черту общая и нижняя облачность в баллах и высота нижней границы облаков в метрах; квадратными скобками обозначены формы облаков: Ci - перистые, Cs - перисто-слоистые, Cc - перисто-кучевые, Ac - высококучевые, As - высокослоистые, Sc - слоисто-кучевые, Ns - слоисто-дождевые, Cu - кучевые, Cb - кучево-дождевые. Подробнее классификацию облаков см. в Атласе облаков (PDF).
T - Температура воздуха - температура, измеренная на высоте 2 м над землей.
Td - Температура точки росы - температура, при понижении до которой содержащийся в воздухе водяной пар достигнет насыщения.
f - Относительная влажность воздуха - влажноcть воздуха, измеренная на высоте 2 м над землей.
Te - Эффективная температура - температура, которую ощущает одетый по сезону человек в тени. Характеристика душности погоды. При расчете учитывается влияние влажности воздуха и скорости ветра на теплоощущения человека.
Tes - Эффективная температура на солнце - температура, которую ощущает человек, с поправкой на солнечный нагрев. Характеристика знойности погоды. Зависит от высоты солнца над горизонтом, облачности и скорости ветра. Ночью, в пасмурную погоду, а также при ветре 12 м/с и более поправка равна нулю.
P - Атмосферное давление - приведенное к уровню моря атмосферное давление.
Po - Атмосферное давление - измеренное на уровне метеостанции атмосферное давление.
Tmin - Минимальная температура - минимум температуры воздуха на высоте 2 м над землей.
Tmax - Максимальная температура - максимум температуры воздуха на высоте 2 м над землей.
R - Количество осадков - Количество выпавших осадков за период времени, мм. При наведении курсора мыши на число - период времени, за который выпало указанное количество осадков.
R24 - Количество осадков - Количество выпавших осадков за 24 часа, мм.
S - Снежный покров - Высота снежного покрова, см. При наведении курсора мыши на число - состояние снежного покрова и степень покрытия местности в баллах.